TimeCDT,TemperatureF,Dew PointF,Humidity,Sea Level PressureIn,VisibilityMPH,Wind Direction,Wind SpeedMPH,Gust SpeedMPH,PrecipitationIn,Events,Conditions,WindDirDegrees,DateUTC
12:53 AM,64.9,51.1,61,29.90,10.0,East,11.5,-,N/A,,Overcast,90,2013-05-17 05:53:00
1:53 AM,64.0,50.0,60,29.90,10.0,ESE,9.2,-,N/A,,Overcast,110,2013-05-17 06:53:00
2:53 AM,62.1,48.9,62,29.91,10.0,ESE,4.6,-,N/A,,Partly Cloudy,110,2013-05-17 07:53:00
3:53 AM,62.1,48.9,62,29.91,10.0,ESE,4.6,-,N/A,,Partly Cloudy,120,2013-05-17 08:53:00
4:53 AM,61.0,50.0,67,29.93,10.0,East,3.5,-,N/A,,Clear,100,2013-05-17 09:53:00
5:53 AM,59.0,52.0,78,29.95,10.0,Calm,Calm,-,N/A,,Mostly Cloudy,0,2013-05-17 10:53:00
6:53 AM,61.0,55.0,81,29.97,10.0,Calm,Calm,-,N/A,,Scattered Clouds,0,2013-05-17 11:53:00
7:53 AM,59.0,53.1,81,29.98,10.0,NE,5.8,-,N/A,,Clear,40,2013-05-17 12:53:00
8:53 AM,63.0,54.0,72,29.99,10.0,NE,8.1,-,N/A,,Clear,50,2013-05-17 13:53:00
9:53 AM,66.0,55.0,68,30.00,10.0,ENE,10.4,-,N/A,,Clear,60,2013-05-17 14:53:00
10:53 AM,66.0,54.0,65,30.00,10.0,NE,10.4,-,N/A,,Clear,50,2013-05-17 15:53:00
11:53 AM,66.9,55.0,66,30.00,10.0,ENE,11.5,-,N/A,,Overcast,70,2013-05-17 16:53:00
12:53 PM,68.0,55.9,65,30.00,10.0,East,11.5,-,N/A,,Overcast,80,2013-05-17 17:53:00
1:53 PM,70.0,57.0,63,29.98,10.0,East,8.1,-,N/A,,Scattered Clouds,100,2013-05-17 18:53:00
2:53 PM,73.0,57.9,59,29.97,10.0,ESE,11.5,-,N/A,,Partly Cloudy,110,2013-05-17 19:53:00
3:53 PM,75.0,59.0,57,29.95,10.0,East,10.4,19.6,N/A,,Mostly Cloudy,90,2013-05-17 20:53:00
4:53 PM,75.0,57.9,55,29.96,10.0,East,9.2,-,N/A,,Clear,100,2013-05-17 21:53:00
5:53 PM,73.0,57.0,57,29.96,10.0,East,12.7,-,N/A,,Overcast,100,2013-05-17 22:53:00
6:53 PM,72.0,55.0,55,29.96,10.0,ESE,13.8,21.9,N/A,,Overcast,120,2013-05-17 23:53:00
7:53 PM,68.0,53.1,59,29.98,10.0,East,12.7,-,N/A,,Mostly Cloudy,100,2013-05-18 00:53:00
8:53 PM,64.9,52.0,63,29.99,10.0,East,8.1,-,N/A,,Mostly Cloudy,90,2013-05-18 01:53:00
9:53 PM,63.0,51.1,65,29.99,10.0,East,9.2,-,N/A,,Clear,100,2013-05-18 02:53:00
10:53 PM,63.0,52.0,67,29.99,10.0,ESE,10.4,-,N/A,,Clear,110,2013-05-18 03:53:00
11:53 PM,61.0,52.0,72,30.00,10.0,East,6.9,-,N/A,,Clear,80,2013-05-18 04:53:00